Regional Weather Roundup
Issued by NWS New Orleans/Baton Rouge, LA

Home | Current Version | Previous Version | Text Only | Print | Product List | Glossary On
Versions: 1 2 3 4 5 6 7 8 9 10 11 12 13 14 15 16 17 18 19 20 21 22 23 24 25 26 27 28 29 30 31 32 33 34 35 36 37 38 39 40 41 42 43 44 45 46 47 48 49 50
055
ASUS44 KLIX 020110
RWRLIX
NEW ORLEANS REGIONAL WEATHER ROUNDUP
NATIONAL WEATHER SERVICE NEW ORLEANS LA
800 PM CDT FRI AUG 01 2014

NOTE: "FAIR" INDICATES FEW OR NO CLOUDS BELOW 12,000 FEET WITH NO
      SIGNIFICANT WEATHER AND/OR OBSTRUCTIONS TO VISIBILITY.
      SKY/WX - SKY CONDITION AND SIGNIFICANT WEATHER.
      TMP - AIR TEMPERATURE.     DP    - DEWPOINT TEMPERATURE.
      RH  - RELATIVE HUMIDITY.   PRES  - PRESSURE.
      HI  - HEAT INDEX.          WCI   - WIND CHILL INDEX.

*  THESE STATIONS ARE NOT NWS OR FAA STATIONS AND ARE NOT UNDER
   NWS QUALITY CONTROL.

LAZ038-040-048-061>063-065>067-069-020200-
SOUTHEAST LOUISIANA

CITY           SKY/WX    TMP DP  RH WIND       PRES   REMARKS
N.O. AUDUBON     N/A     85  67  55 MISG        N/A
N.O. INTL ARPT MOCLDY    82  67  60 SE5       29.96S
N.O. LAKEFRONT MOCLDY    82  72  71 E10       29.97R
N.O. DOWNTOWN*   N/A     84  64  51 S6        29.97R
SLIDELL        MOCLDY    79  70  74 E3        29.96S
BATON ROUGE    MOCLDY    78  73  84 E5        29.95S
BOOTHVILLE     MOCLDY    81  70  69 E3        29.97S
BELLE CHASSE   CLOUDY    83  66  56 S7        29.96R
BOGALUSA*        N/A     79  72  79 E3        30.00R
GALLIANO*      NOT AVBL
NEW ROADS*     MOCLDY    77  73  87 SE6       29.94S
GONZALES*      CLOUDY    79  77  94 CALM      29.95S
HAMMOND*       CLOUDY    79  70  73 NE3       29.98R
HOUMA*         CLOUDY    81  69  66 CALM      29.95S HAZE
PORT FOURCHON* CLEAR     84  68  58 SE5       29.98S

$$

MSZ070-080>082-020200-
SOUTHERN MISSISSIPPI

CITY           SKY/WX    TMP DP  RH WIND       PRES   REMARKS
MCCOMB         CLOUDY    74  71  91 NE3       29.98S FOG
GULFPORT       CLOUDY    83  69  62 NE3       29.96S
BILOXI         CLOUDY    80  68  68 E3        29.96F
PASCAGOULA     CLOUDY    77  72  84 CALM      29.97S
STENNIS ARPT*  CLEAR    N/A N/A N/A CALM      29.98

$$

COASTAL OBSERVATIONS
LAKE AND NEARSHORE STATIONS

STATION/POSITION TIME  TEMP    WIND        PRES    WAVE
                       AIR SEA DIR/SP/G            HT/PER
                 (UTC) (F)     (DEG/KT/KT) (MB)    (FT/S)
PASCAGOULA       0100   80      10/  3/  5 1014.2
WAVELAND YACHT   0100   81     130/  3/  5 1014.2
GRAND ISLE       0100   82 87  130/  3/  5 1015.3
SOUTHWEST PASS   0100   83 86  110/  3/  5 1015.0
NEW CANAL        0100   83 83   80/  2/  6 1015.0
SHELL BEACH      0100   82 82  130/  5/  6 1014.7

OFFSHORE STATIONS

STATION/POSITION TIME  TEMP    WIND        PRES    WAVE
                       AIR SEA DIR/SP/G            HT/PER
                 (UTC) (F)     (DEG/KT/KT) (MB)    (FT/S)
64 S DAUPHIN ISL 0046   82 86   40/  6/  8 1014.7

$$




USA.gov is the U.S. government's official web portal to all federal, state and local government web resources and services.